Theta_e
308 308 308 308 308 309 309 309 309 310 311 311 312 313 314 314 315 317 316 313 315 311 312 315 316 316 318 320 319 317 318 317 317 317 318 318 318 317 316 317 316 315 316 312 311
308 308 308 308 308 309 309 309 309 309 310 311 312 314 314 315 318 315 313 312 313 312 314 315 316 315 318 319 320 319 318 317 315 317 317 318 318 318 317 317 316 315 314 312 312
309 309 309 308 308 309 309 308 309 309 309 310 312 314 315 315 319 315 313 314 313 313 314 314 316 316 316 318 319 319 317 315 314 316 317 318 317 317 317 317 317 317 315 312 312
312 312 311 310 309 309 309 309 309 309 309 310 312 314 315 317 317 316 312 314 313 312 315 315 316 316 316 316 317 317 317 316 317 316 316 317 317 317 317 317 312 312 311 311 312
312 313 313 312 312 312 311 310 311 311 311 311 313 315 317 318 318 314 312 313 312 313 315 316 315 315 316 315 316 317 317 317 317 317 317 316 317 317 316 313 310 309 310 310 310
315 315 314 314 314 314 313 313 313 314 315 314 314 315 317 317 315 315 313 312 313 314 314 314 315 315 315 315 316 316 316 316 316 316 316 315 317 314 314 311 310 310 309 309 308
317 316 316 316 315 315 314 314 314 314 315 316 316 315 318 318 317 316 314 313 312 313 314 314 314 314 315 316 315 315 316 318 318 317 316 315 316 315 313 311 311 310 309 307 306
318 318 317 317 316 315 315 314 314 314 315 316 317 316 318 316 317 316 315 313 312 312 313 313 313 315 316 314 315 316 317 321 319 316 314 315 321 316 311 311 312 311 310 308 306
320 319 318 318 317 316 316 315 314 315 316 316 317 317 319 312 314 316 315 315 313 312 311 311 314 315 314 317 320 319 321 322 321 315 315 316 321 314 311 311 313 312 310 308 307
323 321 319 319 318 318 317 316 316 316 316 315 315 317 316 316 312 315 312 313 314 313 313 314 315 317 317 319 321 322 322 320 320 318 315 316 317 315 312 312 313 312 310 308 306
324 324 321 320 320 319 319 319 319 318 316 320 319 318 315 309 310 313 312 312 314 315 318 316 318 320 320 319 320 320 320 320 320 317 316 319 319 319 313 312 313 312 310 308 305
323 324 323 321 321 320 319 321 319 315 319 317 317 316 314 311 313 312 311 315 316 319 318 316 319 319 319 318 319 319 319 320 320 318 314 318 319 319 315 313 312 312 309 307 303
322 323 323 323 322 319 321 321 316 315 323 323 319 317 317 312 316 315 312 315 316 318 317 319 320 316 318 316 317 318 319 319 320 318 315 316 318 318 317 312 310 309 308 306 304
321 322 323 323 318 319 320 322 318 317 326 326 320 319 315 315 317 315 312 314 314 317 317 317 318 315 316 317 316 319 318 317 318 318 321 318 322 322 320 312 308 307 305 304 302
319 320 322 321 319 320 320 322 319 317 334 323 319 311 313 317 314 312 310 312 317 316 315 318 314 315 316 317 315 318 314 316 317 318 319 320 321 320 317 314 310 307 304 302 299
316 319 321 320 319 319 319 320 317 324 330 324 317 316 316 315 312 310 310 310 311 315 315 315 312 313 315 313 313 313 314 314 315 317 323 321 322 323 322 316 315 308 304 302 299
311 316 320 319 318 320 318 318 325 324 323 324 320 316 319 318 315 313 313 314 317 317 318 317 316 314 312 314 311 314 316 322 326 324 325 319 324 323 319 314 315 308 305 301 297
313 315 320 320 320 319 319 323 326 325 325 317 317 316 321 318 318 315 316 318 315 317 319 323 324 317 313 316 318 314 317 324 334 330 328 314 322 322 312 311 310 308 304 300 297
314 314 318 318 319 319 321 325 324 324 322 321 316 320 321 318 319 317 317 320 319 316 319 323 323 315 314 314 316 318 319 319 323 316 324 323 319 317 309 309 309 306 304 301 297
315 316 316 318 319 318 322 324 320 321 320 320 323 321 324 320 318 319 321 320 319 318 316 321 324 317 313 311 313 317 317 319 323 330 331 325 325 325 313 310 308 306 304 301 297
314 315 315 316 317 318 323 319 321 320 320 318 322 322 322 323 319 320 322 321 317 318 315 318 321 320 311 314 318 314 316 318 321 322 331 330 326 315 317 312 309 307 304 301 297
314 317 315 316 319 319 320 319 318 320 321 321 320 322 322 321 317 321 321 320 317 314 316 316 321 324 322 316 313 316 318 318 324 325 323 325 326 309 310 312 308 307 304 301 297
311 314 315 316 319 317 318 319 319 320 321 321 322 321 320 322 321 317 320 319 316 313 317 318 319 325 323 318 312 311 314 317 319 319 325 326 325 307 307 308 308 306 304 301 297
308 314 314 315 317 317 316 317 320 319 320 319 320 320 321 322 321 322 321 319 314 318 315 316 316 321 327 324 320 317 314 314 317 321 323 324 323 311 309 308 307 306 303 301 297
306 306 307 315 315 315 317 316 318 319 317 318 319 320 320 322 321 322 321 318 311 312 311 316 317 316 319 321 315 319 317 315 315 317 321 322 321 319 312 308 306 305 303 301 298
306 304 303 303 305 308 314 317 317 318 317 318 319 319 319 320 320 320 320 319 317 312 312 313 316 316 317 317 316 316 315 316 315 314 316 317 318 316 312 306 305 304 303 301 298
303 301 303 306 303 306 310 310 314 313 315 315 316 318 319 319 318 318 316 313 313 312 313 312 313 315 318 315 313 314 315 316 315 314 314 316 315 307 306 306 306 304 302 301 299
Wind_Speed
3 3 3 4 5 5 6 6 6 7 8 9 11 12 13 14 14 5 2 1 0 3 2 1 1 0 1 2 2 2 4 5 3 5 5 6 7 4 1 4 2 3 5 5 6
4 4 5 5 5 5 5 6 8 8 9 10 11 12 14 15 8 3 2 2 2 4 2 4 3 3 2 1 1 3 4 2 2 1 4 6 4 4 5 7 6 5 6 7 5
5 5 6 6 7 7 7 7 7 8 9 10 12 13 14 12 5 2 1 4 5 3 1 2 2 2 3 2 1 1 4 2 3 0 2 3 5 3 7 7 5 2 4 5 5
8 7 7 7 7 7 9 9 9 10 10 11 12 13 12 4 3 2 2 5 4 4 4 4 3 3 3 5 2 5 3 2 1 2 3 6 1 6 7 4 4 4 3 3 4
9 9 8 8 8 8 8 9 10 10 10 11 12 12 6 5 2 3 3 5 4 4 4 3 5 3 7 2 3 6 3 3 4 4 6 1 9 9 7 4 3 3 3 3 3
8 9 9 9 9 9 9 9 10 10 11 11 10 9 5 9 1 3 4 6 4 5 4 4 3 2 3 3 5 3 4 6 6 10 7 7 9 4 6 6 5 4 3 3 4
8 8 9 9 9 9 9 9 10 11 11 11 8 5 6 10 1 4 5 3 4 3 4 3 2 5 1 3 1 3 8 9 12 12 8 7 9 12 10 9 7 5 4 2 3
9 8 9 9 9 9 9 9 10 11 11 9 5 5 7 5 3 6 6 2 3 2 1 3 2 2 3 2 3 5 5 8 6 7 4 9 14 9 9 10 9 6 4 2 2
10 10 9 10 9 10 10 11 11 11 8 4 3 4 6 1 4 8 8 4 6 4 3 4 3 3 4 6 8 9 10 10 7 10 5 12 5 9 8 12 10 8 6 4 3
10 11 11 11 9 9 9 11 11 8 3 2 3 4 7 2 4 6 6 11 4 9 5 6 6 8 8 10 10 11 13 10 11 7 10 11 15 9 9 12 12 10 8 6 4
11 12 12 12 9 8 7 4 4 4 5 7 1 5 0 2 5 5 6 9 7 8 9 10 10 15 19 17 18 14 13 14 11 2 6 14 16 12 12 11 13 11 10 8 6
14 14 14 14 11 10 5 5 2 2 9 15 15 11 8 5 4 8 13 10 9 13 13 4 16 18 14 13 16 15 16 17 15 6 5 15 19 17 14 15 14 13 12 10 8
16 16 17 16 15 10 8 5 1 3 6 9 14 9 6 13 10 14 16 9 10 14 16 19 8 4 14 9 12 15 17 16 16 3 12 15 21 22 14 12 9 11 10 10 11
19 20 19 16 10 8 5 6 8 2 5 8 7 3 6 7 8 10 21 5 8 13 14 16 19 7 10 15 13 17 16 16 15 9 10 4 13 11 11 15 15 14 13 13 13
21 21 21 22 9 8 6 9 10 3 4 5 4 3 4 10 2 3 2 6 16 9 7 5 6 12 16 14 13 10 1 7 11 14 15 18 11 7 0 13 20 18 16 15 14
25 23 22 25 15 9 13 17 9 3 9 5 5 6 6 9 2 3 5 4 2 15 14 16 2 5 7 1 10 9 6 3 2 8 12 17 16 14 13 15 14 18 19 18 17
25 27 26 22 6 20 21 9 3 5 2 8 6 9 11 9 8 7 8 10 11 7 16 20 21 8 5 5 4 12 7 4 5 6 9 2 11 19 5 4 10 22 22 20 18
23 27 30 27 16 24 11 4 9 10 18 5 1 6 9 11 7 9 7 10 18 16 10 8 7 22 16 24 11 16 16 7 6 8 8 2 9 6 3 2 5 18 21 21 20
16 24 26 26 24 29 6 9 7 14 9 9 6 7 8 7 4 9 12 11 8 21 11 8 9 3 5 15 17 9 14 12 5 1 5 9 13 7 7 7 11 19 21 22 22
19 14 25 20 32 21 10 22 10 15 4 12 14 14 11 12 11 11 10 4 13 14 18 4 9 5 4 3 10 12 6 5 3 5 7 10 12 12 11 14 17 21 24 22 20
13 4 11 25 28 7 12 8 21 20 14 10 15 15 16 8 13 10 9 9 10 5 17 10 6 3 2 13 15 7 8 9 7 8 4 8 10 5 4 19 21 20 21 22 21
4 6 17 35 12 5 12 6 7 15 21 14 13 18 22 13 10 14 17 17 12 8 9 13 3 6 19 5 10 16 17 20 7 8 9 6 12 2 2 10 16 18 19 20 19
3 5 19 26 12 15 19 18 22 9 10 11 14 14 14 18 7 12 16 9 10 11 10 11 5 4 4 3 2 8 19 19 23 2 12 6 8 1 2 6 14 18 19 19 20
2 3 6 8 11 20 24 26 16 17 18 7 6 10 8 12 13 8 14 6 5 19 11 12 8 10 16 10 5 8 17 22 19 11 19 20 17 4 7 10 14 16 20 21 20
3 4 2 3 11 22 15 16 26 25 15 15 18 26 20 11 14 18 19 9 3 4 3 11 9 10 22 21 5 6 13 23 25 31 14 23 19 17 11 14 15 15 17 20 20
2 2 1 3 5 2 15 24 21 13 20 13 19 19 23 22 19 13 16 9 8 7 10 6 4 9 16 16 15 9 15 19 26 29 27 26 19 5 8 10 13 13 16 18 20
7 2 2 4 3 3 3 2 12 11 13 18 18 18 18 23 21 17 9 3 6 9 12 8 6 5 13 5 7 5 29 20 21 22 20 23 28 5 6 7 12 15 19 24 26
Wind_Direction
333 337 340 338 340 342 342 344 346 345 346 345 346 343 338 334 331 331 289 209 150 180 154 161 213 279 229 88 357 311 243 220 209 206 204 153 188 156 53 203 110 36 29 20 351
316 320 318 318 318 321 327 330 332 333 333 336 338 338 336 335 326 275 271 182 151 147 192 218 194 199 154 120 210 273 267 312 351 188 201 164 230 170 216 186 173 145 80 21 22
301 306 309 312 316 317 316 316 318 319 322 327 332 335 335 334 287 86 177 158 153 151 211 200 148 248 233 255 189 150 277 96 179 217 290 205 213 226 241 234 35 337 58 32 39
301 306 309 307 307 308 312 316 316 318 320 323 328 332 330 315 310 127 157 161 158 142 157 168 218 245 270 245 172 252 233 256 165 175 208 219 230 226 246 61 70 67 77 54 46
294 300 304 308 310 312 311 314 316 317 318 320 326 335 337 260 283 183 168 173 164 166 208 221 246 259 258 263 219 240 217 229 222 212 236 229 243 261 200 150 126 103 94 70 41
284 293 298 302 305 307 310 313 314 314 316 318 321 330 283 265 309 195 189 177 180 195 202 220 287 271 294 256 253 19 275 259 236 237 232 229 241 195 184 165 158 163 122 71 30
276 282 287 293 298 301 305 310 310 310 312 313 315 324 265 268 184 189 178 181 192 203 207 208 200 227 143 237 232 293 284 264 242 233 235 214 232 229 138 171 171 172 162 104 37
268 273 278 282 287 294 301 305 306 307 309 309 304 294 261 235 194 193 174 131 137 126 165 157 182 166 267 132 208 249 253 263 112 172 176 204 264 155 174 184 192 188 183 179 80
265 269 270 275 282 290 299 303 302 303 302 299 301 260 261 250 194 199 187 188 143 116 86 127 183 232 180 225 248 215 264 228 250 198 159 202 247 160 191 204 211 209 203 196 161
256 261 264 268 275 288 302 306 295 296 297 244 242 262 196 222 148 161 169 162 149 145 135 186 200 219 225 215 237 258 230 254 256 177 219 213 247 168 189 208 217 209 207 203 190
254 260 253 259 262 276 307 289 239 191 220 235 262 274 74 83 129 165 157 156 142 198 207 201 218 220 226 229 253 283 281 265 261 148 266 247 252 229 190 210 215 212 209 201 182
252 258 255 245 249 254 262 269 357 353 291 234 246 259 236 202 195 179 166 185 195 211 205 191 230 242 248 266 241 248 257 259 263 246 247 267 261 257 189 215 219 215 207 193 170
252 250 251 244 234 223 234 227 33 344 261 260 219 234 215 184 222 190 184 203 211 219 203 227 232 249 227 229 228 238 249 259 263 264 242 272 266 253 221 215 218 228 208 185 180
249 245 250 238 188 183 219 208 224 346 278 232 198 184 169 198 238 226 203 192 203 228 215 253 256 204 201 229 217 248 237 249 265 263 262 180 286 271 206 209 217 207 196 185 166
249 245 244 222 168 183 165 160 161 107 271 120 154 106 159 193 49 98 240 215 232 198 184 226 189 203 221 226 205 254 34 232 250 253 274 257 266 265 213 212 217 204 193 182 167
238 240 239 229 189 185 157 139 126 153 232 175 137 170 158 192 122 105 170 252 356 255 237 265 39 221 227 106 200 129 113 120 243 266 258 247 235 272 221 226 212 191 189 177 169
237 229 232 217 211 170 158 131 190 204 192 172 187 183 193 181 190 183 174 194 206 198 233 240 232 203 181 150 137 198 171 247 241 212 257 273 227 252 168 199 214 186 182 174 169
242 225 227 226 216 181 163 166 220 226 223 83 92 180 185 166 209 185 189 225 220 233 292 227 232 202 196 219 203 198 204 205 244 232 271 126 237 245 24 36 183 175 174 172 171
234 229 227 219 203 183 195 220 207 220 202 183 149 216 206 209 234 194 217 225 229 208 218 223 247 271 175 224 219 183 225 240 335 107 279 246 247 230 171 178 178 170 172 177 175
216 222 222 208 203 188 221 225 219 225 149 187 220 202 223 191 187 200 197 209 223 225 218 289 282 156 146 191 248 226 170 166 174 230 238 252 256 249 206 194 184 179 180 178 176
226 225 209 197 182 214 224 230 232 238 237 191 229 241 229 178 204 202 237 199 195 214 194 202 208 184 183 206 194 168 217 230 197 235 239 270 257 7 263 192 189 185 182 177 175
223 215 176 170 203 217 235 197 228 228 216 234 247 243 246 235 207 224 234 225 183 152 169 214 179 235 233 235 260 226 209 210 209 200 231 274 263 84 78 189 187 182 181 177 176
256 207 177 174 212 223 229 224 229 210 212 208 227 228 233 236 215 208 237 236 226 167 198 167 207 239 243 290 248 235 224 232 224 221 216 210 255 96 159 188 187 184 178 178 176
263 240 209 217 226 223 227 234 226 223 226 198 215 207 188 224 215 235 239 241 226 246 208 160 186 216 240 257 129 205 218 217 222 220 235 222 243 192 199 189 186 187 182 180 180
176 247 6 235 218 218 225 248 234 233 214 219 234 233 224 232 239 234 248 234 176 214 191 181 233 211 249 269 267 217 223 216 215 228 216 247 235 236 202 199 192 183 177 180 183
224 207 193 307 318 285 231 244 237 248 219 212 227 220 228 224 211 234 233 205 206 177 184 194 247 232 252 244 231 236 233 232 224 230 230 242 250 243 167 150 169 180 176 186 189
188 150 260 173 184 220 206 275 260 303 242 220 216 231 218 223 236 253 251 172 182 171 189 173 205 204 251 207 198 241 229 220 229 232 234 235 242 117 123 182 178 182 188 192 196